CW2969 Weather Reports


Display with metric or nautical units.
time (UTC)temp
F
wind
direction
speed
MPH
gust
MPH
rain 1hr
in
rain 24hr
in
rain mn
in
humidity
%
barometer
mb
20201030193838 69 5 0.0 1.0 0.00 0.00 0.00 33 1023.9
20201030192839 69 355 0.0 1.0 0.00 0.00 0.00 35 1024.1
20201030191838 68 23 0.0 2.0 0.00 0.00 0.00 34 1024.2
20201030190841 68 130 1.0 1.0 0.00 0.00 0.00 37 1024.4
20201030185838 67 319 0.0 3.0 0.00 0.00 0.00 35 1024.6
20201030184837 67 308 0.0 3.0 0.00 0.00 0.00 38 1024.8
20201030183844 68 118 0.0 2.0 0.00 0.00 0.00 36 1025.1
20201030182841 67 350 0.0 1.0 0.00 0.00 0.00 38 1025.3
20201030181839 66 15 1.0 3.0 0.00 0.00 0.00 38 1025.4
20201030180836 66 287 0.0 2.0 0.00 0.00 0.00 39 1025.6
20201030175837 65 128 0.0 2.0 0.00 0.00 0.00 41 1025.8
20201030174836 64 341 6.0 8.0 0.00 0.00 0.00 42 1026.0
20201030173837 64 121 2.0 4.0 0.00 0.00 0.00 42 1026.2
20201030172835 64 101 0.0 2.0 0.00 0.00 0.00 43 1026.2
20201030171835 64 80 0.0 0.0 0.00 0.00 0.00 42 1026.4
20201030170835 63 111 1.0 3.0 0.00 0.00 0.00 45 1026.5
20201030165908 63 121 0.0 1.0 0.00 0.00 0.00 46 1026.7
20201030164910 63 333 1.0 3.0 0.00 0.00 0.00 46 1026.7
20201030163908 62 205 0.0 2.0 0.00 0.00 0.00 49 1026.7
20201030162904 61 17 1.0 3.0 0.00 0.00 0.00 49 1026.8
20201030161903 61 101 0.0 1.0 0.00 0.00 0.00 50 1026.8
20201030160904 60 115 2.0 2.0 0.00 0.00 0.00 54 1026.8
20201030155902 59 28 0.0 2.0 0.00 0.00 0.00 55 1026.8
20201030154903 59 295 0.0 2.0 0.00 0.00 0.00 56 1026.9
20201030153912 58 127 0.0 3.0 0.00 0.00 0.00 57 1027.0
20201030152903 57 86 0.0 1.0 0.00 0.00 0.00 60 1027.0
20201030151911 56 150 1.0 3.0 0.00 0.00 0.00 62 1026.9
20201030150904 55 346 1.0 2.0 0.00 0.00 0.00 65 1027.0
20201030145909 55 34 1.0 2.0 0.00 0.00 0.00 65 1026.9
20201030144902 54 142 3.0 3.0 0.00 0.00 0.00 66 1026.9
20201030143902 54 333 3.0 3.0 0.00 0.00 0.00 68 1026.8
20201030142904 53 346 4.0 4.0 0.00 0.00 0.00 68 1026.7
20201030141907 52 28 0.0 1.0 0.00 0.00 0.00 72 1026.6
20201030140859 50 19 0.0 1.0 0.00 0.00 0.00 75 1026.4
20201030135900 49 346 1.0 2.0 0.00 0.00 0.00 77 1026.2
20201030134901 48 349 0.0 0.0 0.00 0.00 0.00 80 1026.1
20201030133902 46 5 0.0 1.0 0.00 0.00 0.00 82 1026.1
20201030132859 45 348 0.0 1.0 0.00 0.00 0.00 84 1025.7
20201030131858 44 345 0.0 0.0 0.00 0.00 0.00 85 1025.7
20201030130900 44 339 0.0 0.0 0.00 0.00 0.00 84 1025.5
20201030125901 45 339 0.0 0.0 0.00 0.00 0.00 83 1025.4
20201030124908 45 339 0.0 0.0 0.00 0.00 0.00 82 1025.3
20201030123900 46 339 0.0 0.0 0.00 0.00 0.00 82 1025.2
20201030122858 46 346 0.0 0.0 0.00 0.00 0.00 80 1025.2
20201030121857 47 346 0.0 0.0 0.00 0.00 0.00 80 1025.1
20201030120902 47 346 0.0 1.0 0.00 0.00 0.00 79 1024.9
20201030115859 47 329 0.0 1.0 0.00 0.00 0.00 79 1024.9
20201030114856 47 346 0.0 2.0 0.00 0.00 0.00 78 1025.0
20201030113857 48 355 1.0 1.0 0.00 0.00 0.00 78 1024.9
20201030112856 48 346 1.0 1.0 0.00 0.00 0.00 76 1024.8
20201030111856 49 332 0.0 3.0 0.00 0.00 0.00 75 1024.6
20201030110854 49 360 0.0 0.0 0.00 0.00 0.00 74 1024.5
20201030105906 50 347 0.0 1.0 0.00 0.00 0.00 73 1024.5
20201030104857 50 11 1.0 3.0 0.00 0.00 0.00 73 1024.3
20201030103855 50 350 2.0 4.0 0.00 0.00 0.00 72 1024.2
20201030102855 50 18 0.0 2.0 0.00 0.00 0.00 72 1024.2
20201030101855 50 355 1.0 1.0 0.00 0.00 0.00 72 1024.1
20201030100854 51 334 0.0 5.0 0.00 0.00 0.00 71 1023.9
20201030095858 51 57 0.0 3.0 0.00 0.00 0.00 71 1023.9
20201030094853 51 10 0.0 4.0 0.00 0.00 0.00 70 1023.9
20201030093852 51 49 0.0 2.0 0.00 0.00 0.00 70 1023.8
20201030092858 52 331 1.0 3.0 0.00 0.00 0.00 70 1023.7
20201030091856 52 15 0.0 5.0 0.00 0.00 0.00 69 1023.7
20201030090851 52 45 1.0 6.0 0.00 0.00 0.00 69 1023.7
20201030085851 52 72 1.0 1.0 0.00 0.00 0.00 69 1023.7
20201030084851 52 336 0.0 3.0 0.00 0.00 0.00 69 1023.7
20201030083852 52 34 6.0 6.0 0.00 0.00 0.00 70 1023.8
20201030082852 52 50 2.0 8.0 0.00 0.00 0.00 70 1023.9
20201030081850 52 340 3.0 7.0 0.00 0.00 0.00 70 1023.9
20201030080856 52 355 4.0 6.0 0.00 0.00 0.00 71 1023.9
20201030075850 52 335 1.0 4.0 0.00 0.00 0.00 71 1023.9
20201030074850 53 26 0.0 1.0 0.00 0.00 0.00 71 1024.0
20201030073850 53 94 1.0 3.0 0.00 0.00 0.00 71 1024.0
20201030072855 53 322 2.0 3.0 0.00 0.00 0.00 70 1024.0
20201030071848 53 327 2.0 4.0 0.00 0.00 0.00 71 1024.0
20201030070849 53 355 3.0 3.0 0.00 0.00 0.00 71 1023.9
20201030065854 53 5 1.0 4.0 0.00 0.00 0.00 72 1023.8
20201030064848 53 360 0.0 1.0 0.00 0.00 0.00 72 1023.8
20201030063848 53 325 2.0 3.0 0.00 0.00 0.00 73 1023.8
20201030062850 53 302 0.0 5.0 0.00 0.00 0.00 74 1023.8
20201030061848 53 333 2.0 2.0 0.00 0.00 0.00 76 1023.7
20201030060847 52 348 1.0 5.0 0.00 0.00 0.00 77 1023.7
20201030055847 52 342 3.0 3.0 0.00 0.00 0.00 78 1023.6
20201030054847 52 341 0.0 3.0 0.00 0.00 0.00 78 1023.6
20201030053848 52 323 1.0 3.0 0.00 0.00 0.00 79 1023.7
20201030052850 52 331 2.0 3.0 0.00 0.00 0.00 79 1023.7
20201030051846 51 315 4.0 4.0 0.00 0.00 0.00 81 1023.7
20201030050846 51 341 0.0 2.0 0.00 0.00 0.00 83 1023.8
20201030045845 49 339 1.0 3.0 0.00 0.00 0.00 86 1023.5
20201030044845 48 355 0.0 3.0 0.00 0.00 0.00 90 1023.6
20201030043850 46 355 0.0 1.0 0.00 0.00 0.00 89 1023.5
20201030042845 46 355 0.0 0.0 0.00 0.00 0.00 88 1023.6
20201030041850 47 355 0.0 0.0 0.00 0.00 0.00 88 1023.4
20201030040852 47 355 0.0 0.0 0.00 0.00 0.00 87 1023.4
20201030035847 48 355 0.0 0.0 0.00 0.00 0.00 86 1023.2
20201030034847 48 355 0.0 0.0 0.00 0.00 0.00 85 1023.0
20201030033843 49 355 0.0 0.0 0.00 0.00 0.00 84 1023.1
20201030032846 49 355 0.0 0.0 0.00 0.00 0.00 85 1022.9
20201030031844 49 355 0.0 0.0 0.00 0.00 0.00 84 1022.9
20201030030845 49 15 0.0 0.0 0.00 0.00 0.00 83 1023.0
20201030025843 50 15 0.0 0.0 0.00 0.00 0.00 81 1022.9
20201030024842 51 15 0.0 0.0 0.00 0.00 0.00 80 1022.7
20201030023841 52 15 0.0 0.0 0.00 0.00 0.00 78 1022.6
20201030022842 53 15 0.0 0.0 0.00 0.00 0.00 75 1022.5
20201030021841 54 11 0.0 0.0 0.00 0.00 0.00 74 1022.6
20201030020843 55 11 0.0 0.0 0.00 0.00 0.00 71 1022.7
20201030015841 56 11 0.0 0.0 0.00 0.00 0.00 70 1022.6
20201030014853 56 26 0.0 0.0 0.00 0.00 0.00 69 1022.4
20201030013843 57 348 0.0 0.0 0.00 0.00 0.00 67 1022.4
20201030012847 57 350 0.0 2.0 0.00 0.00 0.00 67 1022.2
20201030011839 57 355 0.0 1.0 0.00 0.00 0.00 66 1022.1
20201030010845 57 10 0.0 0.0 0.00 0.00 0.00 66 1022.0
20201030005852 58 13 0.0 0.0 0.00 0.00 0.00 65 1021.8
20201030004840 58 5 0.0 1.0 0.00 0.00 0.00 64 1021.6
20201030003840 58 350 2.0 2.0 0.00 0.00 0.00 62 1021.3
20201030002840 59 165 0.0 1.0 0.00 0.00 0.00 61 1021.3
20201030001844 59 340 0.0 1.0 0.00 0.00 0.00 60 1021.2
20201030000842 60 338 0.0 4.0 0.00 0.00 0.00 59 1021.2
20201029235838 60 323 0.0 8.0 0.00 0.00 0.00 58 1021.0
20201029234840 61 190 0.0 4.0 0.00 0.00 0.00 58 1020.7
20201029233838 61 133 1.0 7.0 0.00 0.00 0.00 58 1020.6
20201029232838 61 332 6.0 8.0 0.00 0.00 0.00 57 1020.5
20201029231837 62 360 2.0 3.0 0.00 0.00 0.00 55 1020.5
20201029230838 62 25 0.0 5.0 0.00 0.00 0.00 55 1020.6
20201029225836 62 311 4.0 4.0 0.00 0.00 0.00 54 1020.7
20201029224836 62 22 4.0 4.0 0.00 0.00 0.00 53 1020.6
20201029223837 62 331 9.0 9.0 0.00 0.00 0.00 53 1020.7
20201029222837 62 360 4.0 12.0 0.00 0.00 0.00 53 1020.6
20201029221839 63 28 6.0 12.0 0.00 0.00 0.00 52 1020.8
20201029220845 63 304 0.0 17.0 0.00 0.00 0.00 52 1020.5
20201029215912 63 324 5.0 12.0 0.00 0.00 0.00 52 1020.5
20201029214907 63 322 5.0 5.0 0.00 0.00 0.00 52 1020.5
20201029213905 63 5 5.0 8.0 0.00 0.00 0.00 52 1020.5
20201029212834 62 12 3.0 14.0 0.00 0.00 0.00 52 1020.4
20201029211921 63 331 1.0 3.0 0.00 0.00 0.00 52 1020.2
20201029210905 62 95 2.0 12.0 0.00 0.00 0.00 52 1020.0
20201029205905 62 321 5.0 16.0 0.00 0.00 0.00 52 1020.0
20201029204833 61 27 9.0 12.0 0.00 0.00 0.00 53 1020.0
20201029203832 61 333 22.0 22.0 0.00 0.00 0.00 53 1019.9
20201029202903 61 302 4.0 9.0 0.00 0.00 0.00 54 1019.9
20201029201836 62 17 12.0 19.0 0.00 0.00 0.00 52 1019.9
20201029200909 61 314 8.0 15.0 0.00 0.00 0.00 52 1019.8
20201029195902 61 32 6.0 12.0 0.00 0.00 0.00 53 1019.9
20201029194901 61 19 5.0 12.0 0.00 0.00 0.00 53 1019.7